Location: Nag� el Ma?a??a
(24.0667°N, 32.8833°E)
Time: 16:50:43
(UTC+00:00)

Hubble Space Telescope - Visible Passes

Search period start: 03 December 2022 00:00
Search period end: 13 December 2022 00:00
Orbit: 530 x 534 km, 28.5° (Epoch: 02 December)

Date Brightness Start Highest point End Pass type
(mag) Time Alt. Az. Time Alt. Az. Time Alt. Az.
03 Dec 3.6 02:52:20 10° S 02:54:12 13° SSE 02:56:04 10° ESE visible
04 Dec 3.4 02:38:52 10° SSW 02:41:31 17° SSE 02:44:09 10° ESE visible
05 Dec 2.9 02:27:02 16° S 02:28:49 21° SSE 02:31:57 10° ESE visible
06 Dec 2.5 02:15:57 27° SSE 02:16:08 27° SSE 02:19:36 10° E visible
07 Dec 2.7 02:04:41 28° ESE 02:04:41 28° ESE 02:07:10 10° E visible
07 Dec 0.7 03:40:19 10° W 03:44:23 72° NNW 03:48:28 10° ENE visible
08 Dec 3.3 01:53:16 20° E 01:53:16 20° E 01:54:40 10° E visible
08 Dec 0.8 03:28:29 15° W 03:31:47 63° NNW 03:35:49 10° ENE visible
09 Dec 3.9 01:41:42 12° E 01:41:42 12° E 01:42:06 10° E visible
09 Dec 0.9 03:16:57 24° W 03:19:10 55° N 03:23:11 10° ENE visible
10 Dec 1.0 03:05:16 35° WNW 03:06:34 50° N 03:10:33 10° ENE visible
11 Dec 1.1 02:53:31 44° NNW 02:53:58 47° N 02:57:54 10° ENE visible
12 Dec 1.3 02:41:41 43° NNE 02:41:41 43° NNE 02:45:17 10° ENE visible
